GFSSGP_850_dewp_000.txt.gz
Dewpoint
-20 -30 -15 -6 -4 -3 -2 -4 3 6 7 9 9 10 10 10 10 13 14 13 12 11 12 12 12 12 12 12 12 12 12 12 12 11 9 7 5 3 2 2 0 -0 -1 -5 -14 -20 -22 -14 -5
-28 -9 -9 -6 -2 -1 -1 1 7 7 6 8 8 9 11 13 14 14 14 13 12 11 12 12 12 12 12 12 11 11 11 10 9 7 5 3 1 0 -0 -1 -3 -1 -2 -13 -12 -13 -15 -13 -9
-16 -7 -7 -5 -3 -3 2 1 1 4 4 6 7 8 8 12 13 14 12 11 12 12 12 12 12 12 11 9 8 9 8 7 6 4 2 1 -1 -2 -2 -4 -2 1 -7 -11 -10 -11 -10 -10 -10
-8 -7 -8 -7 -5 -7 1 1 2 6 7 7 7 7 9 12 12 12 13 11 10 11 11 10 10 9 7 7 7 6 4 3 3 1 -0 -1 -2 -2 -5 -4 -1 -4 -10 -11 -11 -12 -13 -13 -12
-4 -6 -7 -6 -7 1 1 1 1 2 8 7 6 7 9 12 11 12 12 13 9 9 9 8 5 3 4 6 6 4 2 1 -0 -2 -2 -3 -2 -4 -9 -6 -6 -11 -12 -11 -12 -12 -11 -10 -10
-7 -9 -6 -5 0 -2 -4 1 2 8 7 7 7 7 9 13 12 12 11 6 4 0 1 1 1 0 0 1 1 1 -0 -1 -3 -5 -4 -2 -6 -8 -8 -10 -10 -7 -7 -7 -5 -5 -5 -7 -10
-6 -6 -6 -3 3 -2 -7 -2 -0 4 7 8 6 6 7 11 12 11 6 -6 -6 -4 -3 -3 -3 -3 -3 -2 -3 -4 -5 -7 -9 -8 -6 -8 -1 -3 -2 -1 -0 0 -0 -1 -0 -1 -3 -4 -4
-8 -7 -7 -4 1 -6 -10 -5 0 4 5 7 5 7 6 8 8 8 7 -4 -3 -3 -5 -4 -2 -7 -14 -11 -11 -12 -13 -13 -11 -8 -1 3 1 1 1 0 1 1 -0 1 1 0 -2 -2 -1
-7 -7 -7 -8 -6 -9 -13 -9 -5 2 5 5 4 5 5 5 6 6 4 4 2 4 4 3 0 1 -4 -14 -15 -10 -4 -3 -3 0 2 1 2 -0 1 1 -0 0 -0 0 1 2 2 1 -0
-8 -9 -9 -11 -9 -12 -14 -12 -7 -2 4 7 7 6 5 3 4 3 4 8 7 7 7 4 -0 -0 1 5 4 3 3 3 0 2 -0 -1 1 1 2 -1 -2 -2 -0 1 2 3 2 3 2
-11 -11 -16 -15 -12 -15 -15 -15 -8 -4 2 6 7 5 4 3 3 2 4 7 8 8 7 6 -2 -2 3 4 6 6 7 6 7 5 0 2 3 1 -1 -1 -2 -1 1 2 2 2 2 2 3
-14 -16 -17 -16 -16 -16 -16 -15 -12 -7 -3 1 5 7 5 4 2 1 3 6 7 8 7 7 -1 -1 4 4 7 6 8 7 8 7 5 1 3 2 -1 -0 1 -0 0 1 2 1 1 3 1
-14 -16 -17 -14 -13 -15 -18 -17 -16 -11 -6 2 5 6 5 4 3 3 1 2 6 7 6 7 -1 5 5 7 8 7 8 8 7 7 6 0 -1 0 3 4 4 4 4 4 3 5 5 4 3
-15 -16 -17 -16 -12 -12 -14 -12 -12 -11 -4 5 6 6 5 4 3 4 2 2 4 6 7 8 2 2 3 7 8 8 8 7 6 5 5 4 4 5 5 5 3 3 2 1 2 3 4 2 2
-16 -14 -14 -15 -10 -11 -10 -8 -10 -12 -7 5 6 6 5 4 4 4 4 2 3 5 6 7 6 3 5 7 6 8 7 5 5 4 4 5 5 6 6 5 4 -0 -2 -2 -2 -2 -1 1 3
-11 -9 -9 -9 -8 -9 -10 -8 -9 -12 -9 1 5 6 5 5 5 5 4 4 2 4 7 7 7 5 6 6 6 7 5 4 4 5 5 5 6 6 3 3 1 0 -1 -1 -1 -0 0 1 2
-7 -8 -6 -7 -8 -8 -8 -6 -8 -13 -12 -10 -6 -0 3 5 5 5 5 5 4 4 6 7 8 7 7 5 6 5 6 5 5 3 3 4 4 3 0 -1 -1 -1 -1 -1 -0 -1 -0 -0 -0
-7 -6 -6 -6 -7 -6 -7 -5 -5 -7 -4 1 1 3 4 5 5 5 4 4 3 6 8 8 8 9 7 7 6 6 6 5 3 2 1 -1 -1 -1 -1 -1 -0 -0 -1 -1 -1 -1 -2 -2 -2
-7 -6 -4 -6 -8 -8 -3 -1 -2 3 4 4 5 5 5 5 5 4 4 4 5 9 9 8 7 6 6 5 5 6 4 2 -1 -2 -2 -1 -1 -1 -1 0 0 -0 -1 -2 -2 -2 -2 -3 -6
-4 -2 -2 -5 -6 -7 -2 -2 -0 2 2 3 4 5 5 5 4 5 6 5 6 7 7 6 5 6 5 4 5 3 1 -2 -2 -2 -1 -1 -1 -1 -4 -1 -1 -2 -2 -3 -4 -4 -4 -5 -7
1 -1 -2 -3 -4 -6 -2 -1 1 -1 -0 1 3 3 3 3 4 4 4 4 3 4 5 4 3 3 3 2 -1 -2 -2 -2 -1 -1 -3 -4 -5 -3 -2 -1 -2 -3 -5 -6 -6 -6 -7 -9 -10
2 -1 -2 -2 -3 -4 -5 2 -0 1 1 1 3 3 3 2 2 2 2 2 2 1 -0 -1 -1 -1 -1 -2 -3 -3 -2 -2 -2 -3 -4 -4 -3 -2 -1 -2 -4 -8 -10 -10 -10 -11 -10 -10 -7
1 -2 -1 -2 -1 -1 -1 2 1 1 2 1 2 3 2 1 1 1 1 1 1 1 -0 -1 -1 -2 -1 -1 -2 -2 -2 -2 -2 -2 -3 -2 -2 -2 -4 -7 -10 -13 -14 -12 -8 -6 -4 -3 -3
-3 -0 2 1 2 4 2 4 3 3 2 2 1 2 1 1 1 0 1 2 1 1 1 1 1 1 1 1 -0 -0 -0 -1 -2 -2 -2 -3 -4 -3 -5 -7 -11 -7 -6 -6 -5 -5 -4 -3 -2
-1 3 7 6 5 5 3 5 5 1 1 2 2 1 1 1 1 1 2 2 1 1 1 1 2 2 1 1 1 -0 -1 -1 -2 -3 -2 -1 -2 -4 -5 -6 -5 -4 -4 -8 -4 -4 -4 -3 -4
-0 1 5 7 6 4 1 5 2 0 1 2 1 1 1 1 1 2 2 2 2 2 2 2 2 2 2 2 1 -1 -2 -3 -2 0 1 0 -1 -4 -4 -3 -3 -5 -10 -5 -6 -9 -10 -10 -11
1 -0 -1 3 3 4 3 1 -1 -1 -1 -1 -1 -1 1 1 2 2 3 2 2 1 1 2 2 2 1 0 -1 -1 -2 -2 -1 -3 -4 -3 -4 -3 -2 -3 -8 -13 -12 -9 -10 -12 -13 -14 -13
-4 -3 3 3 3 4 3 4 4 1 0 -2 -0 0 1 2 2 1 1 1 1 0 0 -0 -1 -1 -1 -2 -3 -4 -4 -2 -3 -3 -3 -4 -3 -2 -2 -4 -13 -13 -11 -11 -12 -13 -14 -12 -12
1 1 2 2 3 4 4 2 -0 2 0 1 1 1 1 1 1 1 1 0 0 -1 -2 -3 -3 -4 -7 -7 -8 -9 -7 -3 -2 -2 -3 -2 -2 -2 -4 -10 -10 -13 -13 -12 -13 -13 -13 -12 -12
-2 1 1 2 4 3 3 2 -2 -1 -0 1 1 1 1 1 2 1 0 -1 -1 -3 -4 -5 -5 -7 -9 -11 -12 -6 -2 -1 -2 -2 -2 -2 -2 -6 -7 -7 -10 -13 -13 -14 -14 -13 -13 -12 -11

GFSSGP_850_dewp_003.txt.gz
Dewpoint
-14 -28 -13 -9 -4 -3 -3 -5 5 6 10 10 9 9 12 13 12 13 14 13 12 11 11 12 12 13 13 13 12 12 11 11 11 10 7 4 1 0 0 -1 -3 -3 -2 -12 -15 -15 -16 -14 -9
-25 -9 -8 -5 -3 -3 -2 -0 8 8 9 8 9 11 12 14 14 14 14 13 12 11 12 12 12 12 12 12 12 11 11 10 8 6 3 0 -1 -2 -4 -7 -4 -1 -8 -12 -12 -12 -11 -10 -9
-20 -6 -7 -5 -3 -3 -2 4 7 8 7 7 7 7 10 14 13 14 13 13 13 12 12 12 12 12 12 11 11 10 8 7 6 3 0 -2 -4 -5 -8 -5 -3 -7 -11 -12 -12 -13 -13 -12 -11
-7 -6 -8 -6 -4 -6 -3 -0 5 5 6 5 8 8 11 12 13 12 13 13 13 12 12 12 12 12 11 10 9 7 5 4 2 1 -3 -4 -3 -6 -10 -6 -9 -12 -12 -12 -14 -14 -12 -11 -11
-6 -7 -7 -7 -8 -6 -6 2 5 7 7 7 7 7 11 12 13 12 12 13 12 12 12 11 11 10 8 7 6 3 1 0 -1 -5 -9 -4 -7 -11 -12 -12 -13 -11 -10 -8 -6 -6 -6 -8 -12
-6 -8 -6 -6 -5 -4 -7 4 7 7 7 8 9 10 12 12 12 12 12 11 11 10 10 9 7 5 5 4 1 0 -1 -2 -5 -10 -5 -7 -4 -5 -6 -5 -3 -3 -3 -3 -4 -6 -5 -6 -6
-7 -8 -7 -7 1 -5 -5 5 7 6 7 7 8 7 14 12 12 12 12 9 7 4 2 1 1 -1 -1 -1 -1 -3 -7 -12 -13 -9 -8 -1 -3 -3 -2 -3 -3 -5 -3 -3 -4 -5 -5 -5 -5
-7 -8 -7 -3 -2 -4 -10 -1 7 7 8 6 7 7 12 13 12 5 4 -2 -3 -2 -3 -5 -6 -8 -7 -6 -9 -13 -13 -12 -9 -4 1 -0 -1 -2 -4 -4 -3 -4 -3 -1 -1 -2 -2 -2 -3
-8 -6 -7 -9 -10 -14 -7 -6 3 7 6 5 5 7 11 12 5 -2 -4 -2 -2 -4 -4 -3 -4 -14 -17 -11 -11 -8 -7 -4 -2 -1 1 0 -2 -3 -3 -3 -3 -3 -1 0 0 0 0 0 -0
-6 -7 -7 -11 -12 -15 -11 0 4 6 6 7 6 8 11 8 6 5 -1 -2 -1 -0 2 1 -3 -4 -5 -9 -3 -0 0 1 -1 1 0 0 -1 -1 -1 -1 -1 -0 1 1 1 1 2 2 2
-9 -11 -15 -14 -11 -7 -10 -7 -4 6 7 6 5 7 8 7 7 5 1 -3 -1 4 6 3 -1 1 3 3 3 4 3 4 3 0 -5 -3 -2 -1 -0 -0 1 1 1 2 2 2 4 4 5
-12 -14 -17 -14 -12 -17 -15 -12 -2 -2 4 4 4 5 6 6 5 4 2 2 5 6 5 6 0 1 2 4 5 5 6 5 4 3 -3 -4 -2 -2 0 1 2 3 4 4 3 2 3 1 4
-17 -16 -14 -15 -16 -16 -16 -15 -11 -8 1 5 4 5 4 4 4 3 1 2 5 6 6 6 1 -0 1 3 7 6 7 7 7 7 3 1 2 4 3 4 4 3 1 -1 -1 -1 0 -1 0
-16 -16 -15 -12 -13 -17 -16 -12 -11 -8 5 6 5 5 4 4 3 2 3 3 6 6 5 6 4 -1 3 5 7 7 8 8 7 6 5 6 5 5 6 6 5 4 2 -1 -2 -2 -2 -1 -1
-16 -14 -13 -14 -11 -11 -11 -8 -10 -6 6 6 6 6 5 4 3 2 2 3 4 4 5 6 5 -0 1 7 8 8 8 7 6 4 6 6 5 6 6 7 5 2 -1 -1 -1 -1 -1 -1 -1
-10 -10 -9 -11 -9 -9 -11 -10 -9 -6 6 7 7 7 6 5 5 4 3 2 2 3 5 8 4 8 7 9 8 8 7 6 5 6 7 5 6 6 5 3 -1 -2 -2 -2 -2 -1 -2 -2 -1
-8 -8 -8 -7 -9 -8 -9 -6 -7 -9 5 6 7 7 7 7 7 6 6 5 3 2 6 9 8 9 6 10 7 8 5 5 5 5 5 4 3 2 0 -1 -2 -2 -2 -2 -2 -2 -2 -2 -2
-9 -7 -8 -7 -8 -7 -7 -2 -0 -2 -4 2 3 3 4 5 6 6 6 5 5 3 6 8 8 8 9 8 8 6 5 5 5 2 0 -1 -2 -3 -2 -1 -1 -4 -2 -1 -2 -2 -3 -4 -4
-8 -7 -6 -6 -7 -1 1 2 4 4 5 5 4 5 6 6 6 5 5 4 4 5 7 8 8 8 8 8 7 5 6 3 0 -2 -2 -1 -1 -0 -1 -4 -6 -3 -2 -2 -3 -4 -5 -5 -7
-4 -4 -3 -4 -2 0 2 2 2 2 4 5 4 5 6 6 6 6 7 7 7 8 8 7 7 7 5 5 5 5 5 2 -1 -1 -1 -2 -3 -4 -5 -4 -4 -2 -2 -4 -7 -10 -12 -13 -15
0 -2 -2 -2 -1 -0 1 2 0 -0 2 4 4 3 4 4 4 4 4 5 6 6 5 2 2 3 2 4 2 -2 -2 -2 -2 -2 -3 -3 -4 -4 -3 -2 -2 -4 -8 -11 -14 -16 -16 -15 -16
1 -1 -2 -2 1 3 -1 5 1 1 3 3 4 3 3 3 2 2 2 2 1 0 -1 -1 -2 -2 -2 -1 -1 -1 -1 -1 -2 -2 -2 -3 -3 -2 -2 -5 -7 -7 -11 -16 -14 -13 -15 -9 -7
0 -2 -2 -2 -2 -1 0 3 2 1 3 3 3 3 2 1 0 1 0 0 0 -0 0 1 0 1 1 1 1 0 0 -0 -1 -2 -2 -2 -3 -4 -4 -3 -2 -6 -13 -11 -8 -6 -12 -5 -3
-3 1 2 2 2 4 2 3 3 3 3 2 2 3 2 2 2 1 1 1 1 1 1 1 1 1 1 1 1 1 0 -1 -2 -2 -2 -3 -1 -2 -1 -5 -5 -7 -8 -7 -5 -9 -8 -6 -5
-1 2 6 5 5 5 2 4 4 1 1 1 2 2 2 1 0 1 2 2 1 1 1 1 2 1 1 1 1 1 0 -1 -2 -3 -2 -3 -6 -4 -5 -5 -5 -5 -5 -8 -10 -8 -10 -11 -11
-0 1 5 6 5 3 2 5 3 0 1 1 1 1 1 2 2 2 2 2 2 1 1 1 1 1 1 1 -0 -1 -2 -3 -3 -2 -2 -3 -4 -4 -3 -4 -3 -6 -10 -13 -12 -12 -13 -14 -16
-0 0 -1 4 2 4 3 1 -0 0 2 2 1 2 2 3 3 2 2 1 1 1 0 -0 -1 -1 -1 -3 -4 -5 -6 -3 -0 -0 -1 -3 -3 -3 -3 -4 -4 -3 -8 -13 -14 -15 -14 -13 -13
-3 -2 2 2 2 3 3 3 4 1 2 -1 -0 2 2 2 2 1 0 -0 -0 -1 -2 -4 -4 -3 -3 -4 -7 -9 -7 -2 -2 -2 -3 -3 -3 -4 -2 -2 -3 -6 -8 -12 -15 -12 -12 -13 -13
0 0 1 2 2 3 4 4 -1 1 -1 0 2 1 1 1 0 -0 0 -1 -2 -3 -5 -5 -5 -7 -8 -10 -11 -12 -12 -13 -14 -17 -14 -5 -3 -3 -3 -4 -6 -5 -11 -14 -15 -15 -13 -13 -12
-2 0 -1 1 3 3 2 1 -2 -0 0 1 1 1 1 0 0 -0 -1 -3 -5 -6 -7 -6 -7 -8 -8 -9 -12 -13 -15 -17 -24 -23 -11 -3 -4 -3 -4 -5 -5 -12 -14 -15 -15 -13 -13 -12 -11

GFSSGP_850_dewp_006.txt.gz
Dewpoint
-10 -24 -8 -5 -9 -4 -3 -5 1 6 10 11 11 11 13 14 12 13 13 12 13 13 13 13 13 14 13 13 12 12 11 11 10 8 4 0 -1 -2 -5 -6 -3 -4 -12 -13 -13 -12 -11 -11 -10
-21 -19 -6 -5 -3 -4 -5 -5 8 9 9 8 8 10 12 13 13 13 14 13 13 13 14 14 14 14 13 12 12 11 11 10 7 3 -0 -3 -3 -7 -6 -4 -5 -10 -12 -12 -13 -13 -12 -11 -10
-24 -7 -6 -5 -3 -5 -4 6 8 8 7 7 8 8 10 11 14 13 13 13 13 13 13 13 13 13 12 11 11 10 9 6 3 -0 -3 -5 -5 -10 -8 -8 -11 -12 -12 -13 -13 -13 -12 -11 -11
-11 -5 -8 -6 -5 -6 -4 5 8 8 6 6 6 9 9 11 12 13 13 13 13 13 13 13 13 12 11 11 9 6 5 2 0 -3 -6 -4 -10 -13 -12 -13 -14 -13 -11 -8 -6 -6 -7 -9 -12
-7 -7 -8 -7 -7 -8 -7 3 6 7 7 5 3 9 10 13 13 12 13 13 13 13 13 13 12 11 10 8 5 3 1 -0 -3 -9 -5 -8 -12 -11 -12 -7 -4 -5 -6 -6 -7 -6 -6 -6 -5
-5 -8 -7 -7 -7 -4 -0 5 7 7 7 7 9 10 13 13 12 12 13 13 13 13 13 12 11 9 7 5 2 1 -1 -3 -7 -6 -8 -5 -6 -5 -5 -5 -7 -7 -7 -8 -7 -7 -8 -8 -7
-7 -8 -7 -7 -1 -3 -3 7 6 6 7 8 10 9 14 12 12 11 13 13 12 11 10 9 7 5 4 2 0 -2 -4 -6 -9 -7 -2 -3 -3 -3 -3 -5 -5 -6 -5 -4 -4 -4 -4 -4 -4
-7 -9 -6 -1 -2 1 -10 6 6 6 7 8 8 12 14 13 13 12 11 11 10 9 7 3 0 -1 -2 -2 -3 -9 -10 -10 -7 -2 1 -1 -1 -2 -2 -3 -4 -3 -2 -2 -1 -0 0 -0 -2
-7 -6 -6 -4 1 -0 -4 -1 6 7 6 6 6 10 9 11 13 12 10 8 5 1 -4 -6 -9 -9 -7 -7 -11 -11 -10 -7 -2 1 0 -1 -1 -2 -3 -3 -2 -1 -1 1 2 2 3 3 3
-6 -6 -7 -10 -7 1 -0 1 4 6 6 6 7 10 11 11 5 5 2 -2 -3 -5 -5 -3 -7 -16 -12 -12 -8 -6 -3 -4 -1 1 0 -1 -1 -2 -2 -2 -1 -0 1 2 2 2 2 2 2
-7 -7 -12 -11 -8 -5 -4 -3 2 6 6 6 9 11 12 10 4 -4 -4 -4 -6 -3 -0 -1 -2 -4 -9 -5 -1 -1 1 -1 2 -1 -0 0 -1 -2 -2 -1 -0 0 0 -0 -1 -2 -2 -1 -2
-10 -11 -14 -8 -8 -9 -3 -7 4 2 3 4 3 7 11 7 3 3 1 -3 -3 3 4 2 -3 0 3 3 3 3 3 3 4 2 -4 -3 -0 -0 1 1 1 1 -0 -1 -2 -2 -2 -2 -2
-12 -15 -13 -14 -13 -12 -10 -7 1 -5 4 4 6 8 8 6 6 5 2 -3 1 5 5 5 1 -1 3 5 6 6 7 7 6 6 3 3 3 4 4 4 4 4 2 -0 -1 -1 -2 -2 -2
-11 -16 -14 -12 -16 -16 -14 -12 -10 -8 4 5 5 6 6 6 5 5 3 2 3 5 6 6 6 2 6 7 8 8 8 8 8 7 6 6 4 5 5 6 6 4 2 1 -1 -2 -2 -1 -1
-15 -15 -14 -13 -12 -12 -11 -10 -10 -2 6 5 5 6 7 8 6 5 4 3 2 4 6 7 8 5 7 8 8 9 8 9 8 8 8 6 6 6 6 6 5 3 0 -1 -2 -2 -2 -1 -2
-11 -10 -11 -13 -10 -9 -13 -11 -8 5 6 6 5 5 5 6 5 4 4 4 5 7 7 8 8 8 7 7 8 7 8 8 7 7 6 6 6 6 5 5 4 0 -1 -2 -4 -2 -2 -2 -2
-9 -8 -9 -9 -9 -8 -9 -4 -0 0 7 6 6 6 6 5 5 4 3 3 3 4 8 9 9 8 7 6 8 8 9 7 8 7 7 5 4 2 0 -1 -1 -2 -5 -5 -3 -2 -2 -3 -3
-9 -8 -8 -7 -8 -0 -0 4 4 2 5 5 5 6 6 7 6 6 6 6 6 4 4 8 8 9 9 9 9 7 4 4 5 5 2 -0 -1 -1 -1 -2 -5 -4 -4 -4 -3 -2 -3 -4 -5
-9 -8 -8 -7 -4 2 4 4 3 5 5 4 5 5 6 6 6 6 6 6 6 6 8 7 7 8 8 8 6 5 5 6 5 0 -0 -1 -3 -4 -5 -4 -3 -3 -3 -3 -3 -5 -6 -8 -10
-4 -3 -2 -2 -1 2 3 2 1 2 4 5 5 6 7 7 7 8 8 9 9 10 8 6 5 5 5 6 5 5 2 -2 -1 -1 -1 -3 -3 -3 -3 -3 -3 -3 -5 -7 -7 -9 -13 -16 -20
-0 -3 -3 0 2 1 2 3 2 1 4 4 5 6 5 4 5 6 7 7 5 4 2 1 -0 -1 -0 -1 -1 -1 -1 -1 -1 -1 -2 -2 -2 -3 -2 -3 -4 -4 -3 -4 -5 -11 -13 -12 -13
0 -2 -1 2 2 4 -0 6 2 2 4 4 4 4 3 3 3 3 3 1 -1 -1 -1 -1 -1 -0 0 0 0 1 1 1 0 -1 -1 -2 -2 -2 -3 -4 -4 -4 -4 -6 -9 -9 -9 -8 -13
-0 -2 -2 -2 -1 -1 1 4 2 3 4 4 4 3 3 2 2 1 -0 -0 -1 0 1 1 1 1 1 1 1 1 1 1 0 -1 -2 -2 -2 -4 -7 -9 -4 -5 -5 -6 -6 -6 -7 -11 -10
-2 1 1 2 2 3 1 2 3 4 3 3 3 3 2 2 1 1 1 1 1 1 1 1 1 1 1 1 1 1 0 -0 -2 -2 -3 -2 -4 -4 -5 -5 -4 -4 -4 -6 -9 -11 -13 -13 -13
0 1 5 4 4 5 2 3 2 1 1 2 3 3 3 2 2 2 2 2 1 1 1 1 1 1 1 1 1 -0 -1 -4 -3 -2 -2 -1 -1 -3 -4 -4 -2 -2 -6 -7 -7 -8 -14 -14 -15
-1 1 4 5 5 5 2 5 3 -0 -0 1 2 2 3 3 3 3 2 2 2 2 1 1 1 0 -1 -1 -1 -2 -4 -5 -5 -3 -3 -4 -5 -4 -3 -3 -2 -3 -4 -2 -8 -11 -15 -13 -14
-1 0 -1 4 2 4 3 2 1 2 2 1 2 2 3 3 3 2 2 2 1 1 0 -1 -2 -4 -3 -4 -5 -8 -11 -12 -12 -13 -15 -16 -18 -16 -4 -3 -2 -2 -3 -6 -6 -12 -13 -12 -13
-2 -2 0 2 2 3 3 3 4 3 3 2 2 2 2 2 2 1 0 0 0 -0 -2 -3 -5 -6 -7 -8 -8 -10 -13 -15 -16 -19 -21 -27 -33 -7 -2 -3 -3 -3 -4 -7 -12 -13 -15 -13 -12
-0 0 1 1 2 2 3 3 0 1 2 1 1 2 2 2 1 -0 -0 -0 -1 -2 -2 -3 -7 -7 -7 -9 -11 -14 -15 -18 -20 -23 -26 -27 -15 -3 -3 -3 -3 -6 -7 -13 -13 -16 -14 -13 -12
-2 -1 -2 -1 -0 2 1 1 -1 -1 -0 -0 1 1 1 1 -0 -0 -1 -1 -3 -5 -7 -7 -7 -7 -9 -11 -13 -13 -13 -15 -18 -20 -21 -21 -12 -4 -4 -6 -4 -6 -12 -14 -15 -15 -13 -13 -12

GFSSGP_850_dewp_009.txt.gz
Dewpoint
-5 -12 -22 -6 -6 -5 -4 -5 0 9 11 11 12 11 12 12 11 13 13 12 11 12 13 14 14 13 13 13 12 11 11 10 8 3 -0 -1 -3 -7 -5 -3 -8 -13 -13 -13 -14 -14 -13 -12 -11
-12 -24 -8 -5 -7 -7 -6 -5 9 9 10 9 8 9 10 12 10 13 14 12 12 11 13 14 13 13 13 13 12 11 10 8 3 -0 -2 -4 -7 -6 -5 -8 -11 -12 -12 -13 -14 -13 -12 -11 -11
-21 -13 -5 -5 -3 -7 -5 7 8 8 8 8 9 9 10 10 9 12 14 13 13 13 13 14 14 13 13 12 11 10 7 3 -0 -3 -5 -5 -9 -7 -8 -12 -12 -13 -13 -12 -10 -9 -9 -9 -10
-20 -7 -8 -5 -4 -5 -5 8 7 7 7 6 7 8 7 5 9 11 13 13 13 13 14 14 13 13 12 12 10 6 3 1 -2 -5 -4 -7 -11 -10 -13 -13 -10 -6 -6 -8 -8 -8 -8 -8 -7
-8 -7 -6 -6 -7 -7 -6 6 8 8 6 6 7 9 12 13 12 13 14 13 12 12 13 13 13 12 12 10 6 3 2 -0 -5 -6 -4 -11 -11 -12 -5 -4 -5 -7 -9 -8 -8 -9 -9 -9 -8
-4 -8 -6 -7 -5 -4 1 5 7 7 7 7 9 10 13 13 13 13 13 12 12 12 13 13 12 12 10 6 5 3 1 -4 -10 -5 -7 -8 -7 -4 -4 -5 -6 -6 -5 -5 -5 -5 -5 -5 -5
-6 -7 -6 -6 -0 -0 5 7 8 6 7 8 10 12 14 14 12 12 12 13 13 13 13 12 12 10 7 6 3 -0 -3 -8 -6 -6 -3 -5 -4 -4 -5 -4 -5 -4 -3 -3 -2 -2 -2 -3 -4
-6 -8 -6 -0 5 6 0 7 6 6 7 9 10 12 14 14 13 13 13 13 13 13 12 10 8 7 6 4 2 -4 -6 -8 -5 -2 -2 -3 -4 -4 -4 -4 -3 -3 -2 -1 -0 0 0 0 -0
-7 -6 -0 -1 3 7 2 6 5 7 7 7 7 12 11 12 13 13 13 13 14 11 7 4 4 3 2 0 -4 -6 -7 -6 -3 0 -2 -2 -2 -3 -3 -3 -2 -2 -1 -1 -0 0 1 1 -1
-6 -5 -5 -6 2 3 1 1 6 6 6 6 11 11 11 12 11 13 13 10 4 2 -0 -1 -2 -3 -1 -2 -6 -6 -6 -3 2 2 0 -1 -0 -2 -2 -1 -1 -0 -0 -0 -1 -0 -1 -1 -2
-6 -5 -9 -11 -4 1 0 -1 5 6 6 6 11 12 11 13 12 10 4 -4 -3 -3 -4 -4 -8 -7 -5 -3 -4 -3 -0 3 4 4 2 2 2 1 -0 -0 0 1 1 0 -1 -2 -2 -2 -2
-8 -8 -14 -7 -6 -3 -1 1 6 5 3 4 7 7 10 12 2 -6 -7 -5 -5 -3 -1 -1 -3 -6 -6 -4 0 3 6 5 7 4 3 5 3 1 1 2 3 3 2 1 0 -1 -1 -2 -3
-9 -11 -14 -14 -11 -4 -5 1 4 -5 3 4 7 9 8 8 4 -2 -3 -3 -4 2 4 2 2 2 -0 2 5 7 7 8 8 8 6 5 5 4 4 5 5 6 4 3 2 -0 -1 -3 -3
-10 -14 -13 -14 -13 -8 -8 -11 -4 -4 5 5 7 8 10 9 5 1 1 -1 -2 4 7 7 5 4 5 6 7 8 7 7 7 8 8 7 6 6 6 6 6 6 5 3 1 -1 -4 -4 -4
-15 -12 -12 -11 -13 -11 -11 -9 -7 5 5 7 11 11 11 9 6 5 4 1 1 5 8 8 8 7 7 7 8 7 3 5 6 9 8 7 6 5 6 6 6 6 2 -0 -2 -4 -4 -3 -3
-11 -9 -9 -12 -9 -9 -13 -9 -1 5 6 6 8 10 9 8 8 8 7 6 6 7 8 8 7 8 7 8 7 6 5 6 7 8 8 7 6 6 5 4 2 -1 -2 -4 -5 -5 -3 -2 -2
-7 -9 -8 -8 -4 -8 -6 -3 3 2 6 6 5 6 6 7 6 6 5 5 4 5 7 8 8 7 8 8 8 6 8 8 7 6 5 5 2 0 -1 -1 -2 -4 -4 -3 -3 -3 -3 -3 -4
-7 -7 -8 -7 -4 0 2 4 4 5 6 6 6 6 6 5 5 5 5 5 6 5 4 5 8 7 7 8 8 8 7 4 6 6 5 1 -0 -2 -3 -4 -4 -3 -3 -3 -3 -4 -6 -7 -8
-8 -8 -7 -5 0 3 4 4 4 4 5 5 6 6 6 7 6 6 7 7 6 7 7 9 9 8 8 7 7 6 4 5 4 -1 -1 -1 -2 -3 -2 -3 -2 -3 -3 -3 -4 -4 -4 -6 -8
-4 -3 0 1 1 3 3 5 4 4 4 5 5 6 6 6 7 7 8 9 9 8 5 5 5 4 4 5 5 5 3 -2 -2 -1 -1 -2 -2 -2 -2 -2 -3 -4 -4 -4 -4 -5 -8 -9 -10
-1 -1 -0 1 2 2 3 4 5 4 4 5 5 6 7 7 8 8 6 3 3 2 0 -1 -1 2 1 -1 -1 -0 -0 -0 -0 -0 -1 -1 -1 -2 -2 -3 -5 -8 -8 -6 -6 -7 -7 -4 -6
1 -2 1 3 2 3 -0 2 5 5 5 5 5 5 5 5 5 4 2 -0 -1 -1 -1 -1 -0 0 0 0 1 1 1 1 1 -0 -1 -2 -2 -2 -4 -5 -7 -10 -5 -5 -5 -5 -6 -8 -6
1 0 1 -1 -1 0 2 3 3 4 6 5 4 4 3 3 2 -0 -1 -1 -1 -0 0 1 1 1 1 1 1 1 1 0 -0 -2 -3 -3 -2 -2 -3 -5 -10 -11 -5 -4 -4 -6 -10 -12 -13
0 1 1 1 1 4 1 1 3 5 5 4 4 4 2 1 0 -0 -0 -0 0 1 1 1 1 1 1 1 1 1 -0 -1 -2 -3 -3 -3 -4 -6 -10 -14 -13 -6 -4 -3 -5 -6 -3 -5 -9
0 2 5 5 6 4 2 3 2 1 2 3 3 3 2 1 1 1 1 1 1 1 1 1 1 1 1 0 -1 -3 -3 -3 -6 -8 -9 -10 -12 -15 -18 -13 -7 -3 -3 -4 -4 -4 -7 -13 -15
0 2 6 6 7 4 2 5 2 -0 0 2 2 3 2 2 2 2 2 1 1 1 1 1 1 -1 -3 -5 -8 -9 -8 -10 -12 -15 -17 -19 -22 -26 -32 -23 -5 -2 -2 -4 -2 -7 -11 -13 -12
-1 1 0 4 2 4 3 2 0 1 1 2 3 3 3 3 3 2 2 1 1 1 0 -2 -2 -5 -7 -8 -9 -10 -12 -15 -17 -20 -24 -28 -30 -31 -26 -12 -2 -2 -3 -3 -6 -12 -13 -15 -14
-1 -1 2 2 4 3 1 3 3 3 2 2 2 3 3 3 3 2 1 0 -0 -1 -2 -2 -4 -6 -7 -8 -11 -12 -15 -16 -19 -19 -22 -26 -27 -26 -12 -3 -1 -2 -5 -8 -11 -13 -16 -15 -13
0 1 1 1 2 1 2 0 1 2 1 2 2 3 2 3 2 1 -1 -1 -2 -3 -3 -3 -6 -5 -8 -10 -11 -12 -13 -14 -14 -15 -21 -23 -21 -19 -7 -3 -2 -4 -5 -6 -13 -15 -15 -14 -13
-1 -0 -0 2 0 2 3 0 -1 0 -0 2 2 2 2 2 1 -1 -1 -1 -3 -4 -4 -4 -3 -7 -10 -10 -11 -11 -11 -11 -11 -14 -18 -17 -16 -14 -5 -4 -5 -6 -4 -7 -14 -14 -14 -13 -13